Date,TemperatureHighF,TemperatureAvgF,TemperatureLowF,DewpointHighF,DewpointAvgF,DewpointLowF,HumidityHigh,HumidityAvg,HumidityLow,PressureMaxIn,PressureMinIn,WindSpeedMaxMPH,WindSpeedAvgMPH,GustSpeedMaxMPH,PrecipitationSumIn
2013-1-1,28.3,16.5,5.4,17.6,10.0,0.5,83,76,62,30.32,30.16,5,1,5,0.00
2013-1-2,18.9,5.8,-3.2,11.1,0.3,-7.9,84,78,70,30.41,30.32,6,1,6,0.00
2013-1-3,22.9,7.6,-2.9,14.0,1.5,-7.8,82,76,65,30.36,30.18,4,0,4,0.00
2013-1-4,25.9,12.7,1.6,15.6,6.0,-3.5,82,75,59,30.25,30.15,6,1,6,0.00
2013-1-5,30.6,14.6,5.0,19.8,8.0,0.2,84,75,58,30.30,30.11,5,1,5,0.00
2013-1-6,33.1,19.3,6.5,23.3,13.4,2.0,87,78,66,30.11,29.92,7,1,7,0.00
2013-1-7,36.4,26.8,17.1,27.9,20.7,12.8,88,78,69,29.99,29.77,16,3,16,0.00
2013-1-8,40.3,35.9,31.9,26.8,24.2,22.1,73,62,50,30.01,29.78,22,5,22,0.00
2013-1-9,44.5,40.4,34.0,30.6,28.1,24.3,71,62,53,30.05,29.66,25,11,25,0.00
2013-1-10,42.7,27.0,11.9,33.0,21.5,7.1,93,81,55,29.77,29.59,16,7,16,0.00
2013-1-11,11.9,8.6,6.8,7.1,3.1,0.7,82,78,75,29.91,29.77,18,10,18,0.00
2013-1-13,8.1,2.9,0.7,0.0,-3.4,-5.8,79,75,68,30.17,30.14,4,1,4,0.00
2013-1-14,14.9,5.4,-7.6,9.0,-0.7,-12.8,82,76,63,30.19,30.09,11,3,11,0.00
2013-1-15,29.9,20.3,14.2,20.5,13.7,8.9,81,75,67,30.32,30.16,12,3,12,0.00
2013-1-16,36.9,22.7,13.3,23.4,14.3,8.3,81,71,55,30.37,30.26,9,2,9,0.00
2013-1-17,27.4,18.6,9.0,17.1,11.3,3.2,81,73,62,30.39,30.19,6,1,6,0.00
2013-1-18,47.5,30.2,18.9,29.9,19.5,12.0,79,65,50,30.20,30.02,11,3,11,0.00
2013-1-19,40.0,30.3,23.2,23.7,18.1,12.4,68,60,49,30.26,30.14,10,2,10,0.00
2013-1-20,34.9,25.7,16.9,21.9,16.8,11.5,81,69,57,30.36,30.19,14,2,14,0.00
2013-1-21,39.1,22.0,7.6,27.3,14.8,3.4,86,74,61,30.22,30.07,8,1,8,0.00
2013-1-22,36.2,23.3,13.1,23.0,13.5,5.9,75,66,55,30.17,30.09,8,1,8,0.00
2013-1-23,40.7,33.2,22.0,24.8,21.8,15.2,76,63,49,30.11,29.92,12,2,12,0.00
2013-1-24,50.8,37.6,26.5,32.9,25.2,20.4,83,61,46,30.11,29.92,13,3,13,0.00
2013-1-25,46.6,37.4,26.6,32.9,28.2,21.0,82,70,56,30.12,29.95,11,2,11,0.00
2013-1-26,46.6,37.2,30.1,36.4,30.8,26.6,89,78,62,29.95,29.70,13,3,13,0.00
2013-1-27,38.9,30.3,20.9,29.4,24.5,16.2,91,79,61,29.86,29.80,9,1,10,0.00
2013-1-28,35.5,23.5,10.4,23.8,16.2,6.7,88,74,59,29.88,29.74,12,3,12,0.00
2013-1-29,26.3,19.2,11.5,20.0,11.2,3.2,86,71,61,30.09,29.72,19,5,19,0.00
2013-1-30,39.6,29.1,15.1,28.7,20.3,8.6,79,70,54,30.01,29.90,21,3,21,0.00
2013-1-31,43.0,38.9,36.4,31.2,28.0,24.9,74,65,55,30.10,30.00,16,5,16,0.00
2013-2-1,45.0,38.0,30.1,30.2,26.2,19.6,78,63,48,30.26,30.01,20,4,20,0.00
2013-2-2,41.9,31.4,24.5,28.3,22.4,17.6,78,69,57,30.36,30.21,10,3,10,0.00
2013-2-3,40.3,31.0,23.0,28.7,23.2,17.4,82,73,57,30.22,29.98,8,2,8,0.00
2013-2-4,42.8,36.9,29.3,29.5,26.7,24.2,83,67,54,29.98,29.91,14,3,14,0.00
2013-2-5,47.7,37.7,31.0,34.4,28.1,24.7,80,69,57,29.98,29.77,13,3,13,0.00
2013-2-6,41.8,33.7,25.2,28.4,23.9,19.3,82,68,48,30.07,29.80,15,3,15,0.00
2013-2-7,42.3,32.0,23.8,26.0,21.6,17.5,79,66,44,30.07,29.89,10,2,10,0.00
2013-2-8,38.0,28.6,22.0,26.8,21.9,16.7,86,76,61,29.95,29.88,4,1,4,0.00
2013-2-9,36.7,28.9,21.2,26.7,22.3,16.8,92,77,54,29.95,29.80,17,3,17,0.00
2013-2-10,30.2,25.0,13.7,24.3,16.2,7.7,84,70,53,30.12,29.95,17,5,17,0.00
2013-2-11,34.4,21.3,10.4,21.3,12.9,5.1,83,71,55,30.11,30.00,10,3,10,0.00
2013-2-12,41.2,30.7,20.9,27.9,21.1,11.9,73,67,57,30.12,30.03,12,5,12,0.00
2013-2-13,45.4,38.2,32.4,28.9,24.8,18.3,72,59,35,30.11,29.96,25,6,25,0.00
2013-2-14,37.6,31.1,24.8,24.9,22.0,18.0,79,69,55,30.29,30.10,16,3,16,0.00
2013-2-15,45.0,32.6,22.0,28.7,23.3,17.0,84,70,50,30.36,30.21,14,3,14,0.00
2013-2-16,49.3,36.9,26.5,30.9,25.4,19.8,77,64,47,30.21,29.77,21,6,21,0.00
2013-2-17,38.5,33.6,27.4,28.5,25.0,19.8,86,71,51,29.99,29.76,16,3,16,0.00
2013-2-18,38.5,29.6,22.7,25.2,20.4,15.2,87,70,43,30.06,29.89,10,3,10,0.00
2013-2-19,41.0,29.0,22.0,24.1,19.7,15.4,81,69,45,29.89,29.67,5,1,5,0.00
2013-2-20,33.7,27.4,20.2,28.1,22.5,15.5,88,82,71,29.87,29.73,7,1,7,0.00
2013-2-21,35.6,26.4,14.6,25.4,19.0,10.6,90,74,55,29.95,29.86,11,3,11,0.00
2013-2-22,42.1,33.3,24.8,24.1,20.6,17.4,75,61,41,29.94,29.68,20,7,20,0.00
2013-2-23,40.0,33.1,26.6,30.0,21.9,13.4,93,64,40,30.03,29.62,17,5,17,0.00
2013-2-24,39.2,26.5,14.0,21.1,15.7,9.2,82,65,44,30.16,30.03,15,4,15,0.00
2013-2-25,40.0,31.0,24.3,24.9,18.9,13.8,70,61,49,30.06,29.83,16,7,16,0.00
2013-2-26,41.8,30.6,23.0,24.9,19.4,15.4,75,64,43,30.18,29.95,11,3,11,0.00
2013-2-27,44.1,28.9,17.3,22.0,17.1,11.3,80,63,38,30.24,30.11,14,4,14,0.00
2013-2-28,47.5,37.6,28.8,27.1,23.0,16.2,68,56,44,30.27,30.19,13,6,13,0.00
2013-3-1,53.8,42.9,34.9,34.5,29.5,25.4,74,60,43,30.28,30.22,12,3,12,0.00
2013-3-2,58.3,43.0,30.4,37.1,30.3,25.0,82,62,42,30.28,29.89,14,4,14,0.00
2013-3-3,44.5,36.8,24.8,38.4,23.7,7.4,90,62,30,30.02,29.67,26,8,26,0.00
2013-3-4,34.7,24.2,15.8,16.5,11.7,8.0,74,59,42,30.24,30.02,14,4,14,0.00
2013-3-5,42.5,25.4,11.9,22.1,13.9,5.9,81,64,36,30.19,29.93,5,1,5,0.00
2013-3-6,46.6,32.6,21.4,34.2,25.2,15.6,91,75,57,29.93,29.70,18,2,18,0.00
2013-3-7,47.3,34.5,22.7,30.8,23.2,15.2,91,67,29,30.01,29.82,14,3,14,0.00
2013-3-8,52.7,33.8,23.9,28.7,22.9,18.5,82,65,39,29.98,29.86,5,1,5,0.00
2013-3-9,54.0,31.2,18.7,28.1,19.8,14.3,87,66,33,30.23,29.95,11,2,11,0.00
2013-3-10,51.5,32.9,21.2,26.8,21.7,16.0,84,66,34,30.26,30.03,11,3,11,0.00
2013-3-11,46.3,37.0,25.6,29.2,21.8,10.6,77,56,25,30.21,30.05,26,6,26,0.00
2013-3-12,55.4,36.3,20.7,31.3,23.0,14.0,78,61,37,30.23,30.02,15,3,15,0.00
2013-3-13,63.5,48.7,35.6,35.0,28.7,25.3,68,48,25,30.15,30.09,12,3,14,0.00
2013-3-14,68.6,48.7,32.8,37.3,30.4,25.0,77,52,26,30.18,29.96,15,3,15,0.00
2013-3-15,61.6,50.2,37.3,29.6,25.7,20.1,58,39,22,30.03,29.95,20,6,20,0.00
2013-3-16,56.5,42.7,29.5,32.0,23.4,17.3,80,51,22,30.03,29.62,14,4,14,0.00
2013-3-17,44.6,33.8,24.8,31.8,22.1,12.0,93,65,40,29.90,29.58,22,5,22,0.00
2013-3-18,41.0,30.2,20.9,21.2,15.3,10.9,73,55,31,29.98,29.85,22,6,22,0.00
2013-3-19,54.4,34.5,25.0,21.9,15.6,8.7,74,49,21,30.20,29.98,17,5,17,0.00
2013-3-20,58.7,42.0,29.3,34.3,25.0,13.9,88,52,36,30.05,29.59,23,8,23,0.00
2013-3-21,42.3,33.7,23.4,31.3,20.2,9.2,92,61,30,29.91,29.67,19,5,19,0.00
2013-3-22,34.9,26.5,18.5,19.3,13.5,9.2,76,59,35,30.10,29.89,18,5,18,0.00
2013-3-23,43.6,24.0,13.5,18.0,9.3,4.4,71,55,29,30.21,30.10,10,2,10,0.00
2013-3-24,49.0,26.3,13.5,18.7,11.3,5.2,80,56,22,30.24,30.14,10,2,10,0.00
2013-3-25,57.6,30.5,13.5,15.7,9.3,5.2,74,46,16,30.16,29.97,14,3,14,0.00
2013-3-26,63.4,41.9,30.2,23.1,16.6,7.6,54,37,19,29.99,29.90,15,3,15,0.00
2013-3-27,60.8,40.6,20.7,29.9,22.5,13.7,79,52,25,30.01,29.93,14,3,14,0.00
2013-3-28,63.0,49.8,30.6,33.6,28.5,23.6,77,47,25,30.08,29.98,12,3,12,0.00
2013-3-29,58.5,45.4,32.8,40.6,34.1,27.3,82,66,43,30.16,30.05,13,2,13,0.00
2013-3-30,67.9,46.1,31.7,38.2,29.3,21.3,86,57,22,30.21,30.08,12,2,12,0.00
2013-3-31,60.1,42.9,24.3,31.4,24.9,18.4,82,53,29,30.11,30.02,13,4,13,0.00
2013-4-1,65.0,44.0,25.0,30.3,23.5,17.8,78,49,20,30.08,29.96,13,3,13,0.00
2013-4-2,79.6,47.1,24.7,31.1,24.0,16.2,75,45,15,30.09,29.91,12,2,12,0.00
2013-4-3,66.2,49.5,34.7,35.4,28.4,23.8,76,47,25,30.11,29.98,13,3,14,0.00
2013-4-4,70.9,51.3,33.7,38.9,31.0,24.0,74,49,22,30.05,29.78,15,2,17,0.00
2013-4-5,66.2,53.0,43.6,40.3,32.2,21.2,78,48,24,29.91,29.77,20,6,20,0.00
2013-4-6,63.0,46.4,34.2,39.4,31.3,25.3,87,58,30,29.91,29.79,18,4,18,0.00
2013-4-7,55.1,39.3,32.0,43.5,34.5,28.4,94,84,50,29.86,29.59,16,3,16,0.00
2013-4-8,33.1,29.2,25.7,28.5,22.5,17.5,86,76,53,30.02,29.77,16,9,16,0.00
2013-4-9,53.8,34.8,23.9,22.2,15.9,11.3,72,47,25,30.29,30.16,9,3,9,0.00
2013-4-10,60.5,41.4,23.4,40.2,26.5,14.6,86,58,33,30.19,29.77,18,4,18,0.00
2013-4-11,56.5,44.6,36.4,38.4,26.8,18.0,84,54,25,29.98,29.84,16,6,16,0.00
2013-4-12,65.9,42.3,24.5,27.4,20.9,14.6,81,48,18,30.05,29.63,13,3,13,0.00
2013-4-13,54.0,42.0,29.2,37.5,24.2,8.5,84,51,29,29.72,29.44,25,7,25,0.00
2013-4-14,40.3,32.2,23.9,26.8,20.6,13.8,85,63,41,29.91,29.71,17,5,17,0.00
2013-4-15,36.7,28.5,22.5,20.2,15.9,13.1,78,60,40,30.07,29.89,16,7,16,0.00
2013-4-16,36.2,27.5,18.7,17.0,13.4,11.0,74,56,40,30.21,30.03,18,6,18,0.00
2013-4-17,43.9,28.1,15.3,17.7,9.9,0.3,75,50,17,30.24,30.18,14,4,14,0.00
2013-4-18,47.3,24.3,16.4,20.9,12.3,7.8,76,61,32,30.20,30.16,9,2,9,0.00
2013-4-20,59.9,52.5,43.6,28.5,25.5,20.4,52,36,24,30.01,29.89,25,10,25,0.00
2013-4-21,43.4,33.7,23.6,29.4,25.3,20.5,90,72,51,30.16,29.99,21,7,21,0.00
2013-4-22,50.4,30.3,23.2,24.9,18.3,14.2,88,63,29,30.30,30.16,15,5,15,0.00
2013-4-23,52.4,34.2,17.6,23.2,17.5,11.9,79,54,28,30.28,30.10,12,3,12,0.00
2013-4-24,66.8,42.7,21.2,27.4,18.7,8.9,79,46,13,30.24,29.94,18,4,18,0.00
2013-4-25,72.7,54.6,42.1,24.3,19.8,16.9,40,27,15,30.03,29.85,21,5,21,0.00
2013-4-26,78.8,54.4,31.9,30.4,24.0,18.9,69,36,12,30.16,30.03,16,5,16,0.00
2013-4-27,76.1,65.7,39.1,34.2,23.3,16.9,61,23,12,30.14,29.90,24,10,24,0.00
2013-4-28,71.3,57.8,49.7,34.4,26.0,14.7,51,31,13,30.03,29.85,20,6,20,0.00
2013-4-29,60.7,51.2,37.4,36.8,23.2,14.8,58,34,20,29.85,29.60,30,11,30,0.00
2013-4-30,44.6,36.5,26.1,21.1,14.2,7.4,57,41,28,30.19,29.84,16,6,16,0.00
2013-5-1,54.7,40.3,22.5,22.2,16.3,10.6,72,41,20,30.51,30.19,16,3,16,0.00
2013-5-2,76.9,45.8,20.7,20.7,13.6,8.8,63,34,7,30.57,30.22,16,4,16,0.00
2013-5-3,61.2,49.1,36.4,38.3,27.3,11.9,83,45,28,30.24,30.14,18,6,18,0.00
2013-5-4,67.7,49.6,41.0,38.5,36.0,29.9,83,62,33,30.23,30.15,15,6,15,0.00
2013-5-5,81.0,51.3,29.2,38.0,30.7,23.9,85,52,16,30.17,29.97,12,2,12,0.00
2013-5-6,88.9,56.8,33.1,37.8,29.6,23.5,74,41,11,30.04,29.85,10,2,10,0.00
2013-5-7,75.2,57.0,36.5,37.9,32.0,24.8,70,42,22,30.04,29.90,23,6,23,0.00
2013-5-8,90.2,61.0,42.8,41.6,35.1,30.6,66,41,15,30.13,30.03,16,3,16,0.00
2013-5-9,78.7,60.1,43.6,39.9,33.6,28.6,65,40,19,30.16,30.07,17,3,17,0.00
2013-5-10,76.7,58.1,40.5,39.6,34.3,28.9,74,44,22,30.32,30.14,21,5,21,0.00
2013-5-11,80.1,61.1,39.8,38.9,32.9,27.4,66,38,18,30.32,30.11,14,3,14,0.00
2013-5-12,90.7,68.2,43.4,44.1,34.8,28.5,65,34,12,30.16,29.95,17,4,17,0.00
2013-5-13,92.9,71.5,48.6,44.6,34.8,21.4,62,32,9,30.05,29.75,26,8,26,0.00
2013-5-14,77.0,60.9,42.5,41.9,29.3,17.4,66,35,13,30.02,29.86,19,6,19,0.00
2013-5-15,80.1,61.7,42.8,31.6,26.6,20.7,45,28,12,30.06,29.86,17,4,17,0.00
2013-5-16,70.9,56.6,48.2,48.2,39.5,32.0,88,56,30,29.92,29.82,16,3,16,0.00
2013-5-17,61.6,51.7,45.2,48.7,45.9,42.2,92,81,58,29.95,29.84,14,3,14,0.00
2013-5-18,65.2,54.2,47.9,49.5,45.8,40.9,93,75,43,30.02,29.92,15,3,15,0.00
2013-5-19,52.4,49.7,47.7,47.1,44.7,41.7,91,83,75,30.13,30.01,13,4,13,0.00
2013-5-20,65.3,53.2,45.4,49.7,46.1,41.5,91,78,49,30.19,30.11,12,4,12,0.00
2013-5-21,83.0,56.8,39.2,50.8,41.2,31.8,94,63,25,30.11,29.77,16,4,16,0.00
2013-5-22,65.5,55.3,42.5,49.1,42.3,35.7,90,63,43,29.86,29.75,11,3,11,0.00
2013-5-23,51.8,46.7,41.2,48.7,40.9,37.6,93,80,64,29.95,29.84,11,4,11,0.00
2013-5-24,73.4,53.7,39.4,43.7,36.6,27.4,88,58,22,30.00,29.87,25,6,25,0.00
2013-5-25,78.1,54.9,37.4,47.5,38.8,30.6,82,57,29,30.00,29.88,15,3,15,0.00
2013-5-26,74.0,56.0,38.9,47.7,40.6,33.3,85,59,34,30.00,29.85,24,2,24,0.00
2013-5-27,84.6,57.3,41.0,51.0,44.9,38.3,94,68,26,29.96,29.80,13,4,13,0.00
2013-5-28,74.5,55.6,47.9,50.6,45.1,41.5,87,69,39,29.81,29.76,10,3,10,0.00
2013-5-29,69.5,55.2,47.5,50.0,45.9,42.4,87,72,43,29.81,29.70,14,2,14,0.00
2013-5-30,61.2,53.4,47.0,45.5,38.6,32.8,88,59,38,29.98,29.77,14,4,14,0.00
2013-5-31,58.7,51.1,45.5,41.7,37.5,32.7,74,60,50,30.27,29.98,11,3,11,0.00
2013-6-1,74.5,53.8,34.7,46.3,37.3,30.9,89,59,24,30.28,30.02,11,2,11,0.00
2013-6-2,75.8,54.8,46.8,48.9,43.7,37.9,92,68,34,30.03,29.79,16,3,16,0.00
2013-6-3,59.6,49.7,44.1,47.6,42.4,37.6,92,77,49,30.12,29.88,23,5,23,0.00
2013-6-4,71.5,51.3,41.2,41.2,38.8,34.4,88,65,31,30.20,30.11,11,4,11,0.00
2013-6-5,92.0,57.2,34.6,51.6,41.1,30.6,90,61,22,30.20,30.00,8,2,8,0.00
2013-6-6,96.8,64.6,42.7,51.3,45.1,38.4,88,55,17,30.11,29.99,6,2,6,0.00
2013-6-7,82.3,66.4,48.1,56.2,46.6,39.5,84,53,28,30.01,29.80,17,3,17,0.00
2013-6-8,88.9,66.5,45.4,48.6,36.5,26.3,81,40,12,30.00,29.90,16,4,16,0.00
2013-6-9,93.6,68.0,44.3,47.6,35.5,20.3,74,38,11,30.01,29.75,20,5,20,0.00
2013-6-10,84.1,65.7,45.7,53.7,35.3,21.0,75,35,18,29.93,29.75,18,3,18,0.00
2013-6-11,77.4,61.1,52.6,57.0,50.7,47.0,90,70,37,30.04,29.81,19,3,19,0.00
2013-6-12,90.4,64.5,45.9,58.6,49.3,38.9,93,65,19,30.06,29.85,21,5,21,0.00
2013-6-13,64.3,56.3,48.4,53.1,47.1,42.0,89,72,52,30.08,29.89,16,4,16,0.00
2013-6-14,74.5,54.9,42.3,48.9,41.0,33.3,92,65,24,30.14,30.00,16,5,16,0.00
2013-6-15,96.1,60.6,36.0,44.5,37.1,30.7,87,49,13,30.14,29.96,0,0,0,0.00
2013-6-16,85.5,64.1,40.1,46.5,37.8,30.1,75,43,16,30.12,30.03,0,0,0,0.00
2013-6-17,102.2,69.4,47.5,54.1,45.0,32.6,82,47,10,30.14,29.92,0,0,0,0.00
2013-6-18,101.5,73.3,49.7,56.9,45.8,31.9,85,46,10,29.97,29.67,0,0,0,0.00
2013-6-19,90.2,72.2,54.4,53.7,46.1,29.3,69,43,13,29.77,29.58,0,0,0,0.00
2013-6-20,80.5,64.3,52.7,39.5,34.3,29.0,54,35,18,30.04,29.93,0,0,0,0.00
2013-6-21,72.4,53.3,38.9,42.7,36.6,30.8,77,55,29,30.07,30.00,0,0,0,0.00
2013-6-22,68.2,55.4,47.0,49.0,44.0,33.9,84,67,42,30.06,30.01,0,0,0,0.00
2013-6-23,89.3,61.3,40.1,49.7,42.1,34.7,91,57,16,30.03,29.77,0,0,0,0.00
2013-6-24,85.7,64.3,47.3,56.3,46.3,38.6,78,55,24,29.78,29.63,0,0,0,0.00
2013-6-25,82.3,67.0,53.5,54.5,46.9,37.9,87,54,22,29.94,29.77,0,0,0,0.00
2013-6-26,85.3,67.6,56.9,51.7,47.1,41.8,74,50,23,30.14,29.94,0,0,0,0.00
2013-6-27,99.9,71.9,50.9,52.0,46.2,41.3,75,45,17,30.23,30.13,0,0,0,0.00
2013-6-28,99.4,75.1,51.8,51.6,45.0,40.3,70,39,15,30.29,30.15,0,0,0,0.00
2013-6-29,96.5,72.1,55.4,58.9,50.8,42.5,73,50,21,30.21,30.07,0,0,0,0.00
2013-6-30,99.2,75.4,52.4,58.5,52.1,47.1,85,50,21,30.17,30.08,0,0,0,0.00
2013-7-1,107.5,80.6,59.4,60.9,52.6,37.9,75,43,11,30.22,30.11,0,0,0,0.00
2013-7-2,100.1,75.9,57.8,57.4,52.1,42.3,73,48,16,30.20,30.06,0,0,0,0.00
2013-7-7,82.3,70.7,63.5,50.5,45.3,42.2,51,41,25,30.00,29.91,0,0,0,0.00
2013-7-8,92.5,72.4,52.4,52.8,47.1,40.6,73,44,21,30.13,29.98,0,0,0,0.00
2013-7-9,102.6,72.8,50.6,48.6,39.2,31.9,64,34,10,30.24,30.11,0,0,0,0.00
2013-7-10,106.6,77.6,51.5,51.6,38.3,27.1,65,31,6,30.19,29.91,0,0,0,0.00
2013-7-11,85.7,78.1,65.7,48.5,44.7,38.7,46,32,21,30.01,29.89,0,0,0,0.00
2013-7-12,92.9,73.5,54.7,49.7,42.5,31.2,62,37,13,30.02,29.88,0,0,0,0.00
2013-7-13,86.4,70.4,51.1,49.8,41.4,31.9,68,39,16,30.16,29.98,0,0,0,0.00
2013-7-14,104.2,73.4,52.6,52.2,44.5,32.6,73,42,10,30.23,30.04,0,0,0,0.00
2013-7-15,101.3,76.7,52.6,50.8,40.0,28.6,67,34,7,30.10,29.94,0,0,0,0.00
2013-7-16,95.6,71.5,56.9,53.0,48.2,44.9,66,46,19,30.23,30.10,0,0,0,0.00
2013-7-17,94.9,73.4,60.8,58.8,53.8,49.3,79,54,24,30.23,30.05,0,0,0,0.00
2013-7-18,94.7,74.5,54.4,57.4,43.0,26.4,81,42,10,30.24,30.12,0,0,0,0.00
2013-7-19,95.0,73.9,50.6,45.7,31.7,20.8,49,26,8,30.20,30.04,0,0,0,0.00
2013-7-20,104.4,74.1,48.8,41.8,30.3,20.9,44,22,3,30.11,29.92,0,0,0,0.00
2013-7-21,106.9,74.8,48.6,40.5,30.4,21.6,49,22,3,30.02,29.90,0,0,0,0.00
2013-7-22,97.0,74.1,49.0,42.5,30.0,23.4,50,23,5,30.05,29.94,0,0,0,0.00
2013-7-23,101.5,74.5,50.6,41.0,31.4,23.0,51,24,6,30.18,30.05,0,0,0,0.00
2013-7-24,109.3,77.3,52.0,49.0,34.8,19.4,51,25,6,30.16,29.99,0,0,0,0.00
2013-7-25,97.6,77.9,58.7,52.2,44.3,29.7,61,35,10,30.23,30.09,0,0,0,0.00
2013-7-26,106.2,77.8,55.3,53.7,41.3,26.3,69,35,7,30.25,30.04,0,0,0,0.00
2013-7-27,92.5,76.4,57.8,50.5,42.9,30.5,60,34,17,30.10,29.96,0,0,0,0.00
2013-7-28,89.5,69.0,51.5,57.3,45.9,38.5,67,46,19,30.01,29.87,0,0,0,0.00
2013-7-29,85.0,68.0,55.8,51.8,48.7,42.5,80,53,23,30.10,29.97,0,0,0,0.00
2013-7-30,84.1,67.5,53.6,54.6,46.2,38.1,78,50,21,30.24,30.07,0,0,0,0.00
2013-7-31,96.8,70.6,46.6,50.3,39.6,25.3,78,41,7,30.29,30.07,0,0,0,0.00
2013-8-1,68.8,61.2,55.1,50.0,43.9,41.0,68,54,40,30.15,30.05,0,0,0,0.00
2013-8-2,80.1,71.4,64.1,45.0,43.6,40.1,50,38,25,30.14,30.03,0,0,0,0.00
2013-8-3,87.5,68.6,50.2,52.3,44.3,33.8,71,45,17,30.18,30.06,0,0,0,0.00
2013-8-4,89.3,70.7,51.7,53.1,42.2,32.1,78,42,16,30.18,30.04,0,0,0,0.00
2013-8-5,94.9,70.0,49.0,51.4,40.1,31.8,61,38,13,30.12,29.96,0,0,0,0.00
2013-8-6,92.9,69.8,49.3,52.4,42.9,34.1,78,44,15,30.13,30.05,0,0,0,0.00
2013-8-7,101.5,71.0,48.2,45.4,36.0,26.9,67,34,7,30.11,29.99,0,0,0,0.00
2013-8-8,88.9,70.4,50.0,49.8,42.3,29.3,67,39,13,30.12,30.01,0,0,0,0.00
2013-8-9,88.7,71.3,57.4,53.4,48.8,43.5,66,47,26,30.18,30.07,0,0,0,0.00
2013-8-10,91.1,70.0,51.8,52.2,44.7,36.4,75,45,19,30.16,30.05,0,0,0,0.00
2013-8-11,87.1,68.1,51.7,48.4,40.7,35.7,59,39,19,30.16,30.08,0,0,0,0.00
2013-8-12,93.8,68.2,47.5,46.9,39.9,33.7,78,41,13,30.17,30.07,0,0,0,0.00
2013-8-13,93.8,70.4,53.1,55.4,43.8,35.5,77,43,16,30.23,30.07,0,0,0,0.00
2013-8-14,101.5,67.8,48.2,55.1,46.1,34.9,88,54,13,30.21,30.05,0,0,0,0.00
2013-8-15,106.2,72.5,48.1,47.5,38.6,29.5,72,37,6,30.15,30.00,0,0,0,0.00
2013-8-16,103.7,74.9,50.0,44.1,34.6,26.4,59,28,3,30.10,29.96,0,0,0,0.00
2013-8-17,98.3,74.5,52.4,45.4,36.9,29.7,51,29,10,30.15,29.98,0,0,0,0.00
2013-8-18,98.5,78.6,58.0,47.3,41.0,33.7,55,29,12,30.14,29.99,0,0,0,0.00
2013-8-19,101.0,75.6,52.2,45.9,35.5,22.1,57,28,5,30.15,29.96,0,0,0,0.00
2013-8-20,96.8,73.3,48.8,40.0,33.4,28.7,48,27,10,30.12,29.96,0,0,0,0.00
2013-8-21,92.9,72.3,52.6,40.8,34.4,25.3,52,28,10,30.18,30.05,0,0,0,0.00
2013-8-22,94.9,72.5,52.2,53.0,42.2,34.1,57,36,16,30.17,29.99,0,0,0,0.00
2013-8-23,84.6,66.8,56.9,60.3,54.8,48.2,85,68,29,30.08,29.93,0,0,0,0.00
2013-8-24,89.5,70.3,56.0,58.7,52.2,42.7,87,57,24,30.10,29.92,0,0,0,0.00
2013-8-25,95.6,70.6,52.0,53.1,46.8,38.1,80,48,16,30.12,29.96,0,0,0,0.00
2013-8-26,67.7,62.5,61.0,46.2,44.1,42.8,57,51,46,30.05,30.01,0,0,0,0.00
2013-9-23,69.5,58.2,44.1,47.5,37.3,31.5,94,49,27,30.01,29.91,0,0,0,0.00
2013-9-24,57.2,48.0,39.1,47.2,39.5,32.7,91,73,56,30.01,29.78,0,0,0,0.00
2013-10-19,72.2,59.2,51.1,40.5,30.4,26.6,43,34,27,30.07,29.96,0,0,0,0.00
2013-10-20,52.2,46.3,42.8,34.0,33.1,29.7,68,60,42,30.14,30.03,0,0,0,0.00